This demonstration page uses our WeatherBlox Daily Observations layout. Learn more.

Left ArrowRight Arrow

Hourly Observations for April 30, 2021

Temp ( °F °C ) Dew Point ( °F °C ) Humidity (%) Winds ( mph kmh ) Pressure ( in mb ) Visibility ( mi km ) Precip ( " mm )
12:53 am 00:53 Clear 63 17.2 50 10 63 63 Calm 30.11 1020 10 16 0.00 0.00
1:53 am 01:53 Clear 64 17.8 47 8.3 54 54 NNW 6 9 30.11 1020 10 16 0.00 0.00
2:53 am 02:53 Clear 60 15.6 49 9.4 67 67 Calm 30.10 1019 10 16 0.00 0.00
3:53 am 03:53 Clear 60 15.6 48 8.9 65 65 NNW 3 6 30.09 1019 10 16 0.00 0.00
4:53 am 04:53 Clear 58 14.4 49 9.4 72 72 WNW 3 6 30.09 1019 10 16 0.00 0.00
5:53 am 05:53 Clear 56 13.3 49 9.4 77 77 Calm 30.09 1019 10 16 0.00 0.00
6:53 am 06:53 Sunny 54 12.2 49 9.4 83 83 NNE 3 6 30.10 1019 10 16 0.00 0.00
7:53 am 07:53 Sunny 62 16.7 51 10.6 67 67 Calm 30.11 1020 10 16 0.00 0.00
8:53 am 08:53 Sunny 69 20.6 48 8.9 47 47 N 3 6 30.10 1019 10 16 0.00 0.00
9:53 am 09:53 Sunny 73 22.8 47 8.3 40 40 Calm 30.09 1019 10 16 0.00 0.00
10:53 am 10:53 Sunny 80 26.7 48 8.9 33 33 Calm 30.08 1019 10 16 0.00 0.00
11:53 am 11:53 Sunny 81 27.2 46 7.8 29 29 VRB 3 6 30.06 1018 10 16 0.00 0.00
12:53 pm 12:53 Sunny 84 28.9 43 6.1 24 24 S 8 13 30.04 1017 10 16 0.00 0.00
1:53 pm 13:53 Sunny 87 30.6 43 6.1 21 21 S 7 11 30.01 1016 10 16 0.00 0.00
2:53 pm 14:53 Sunny 88 31.1 39 3.9 18 18 SSW 8 13 29.99 1016 10 16 0.00 0.00
3:53 pm 15:53 Sunny 89 31.7 31 -0.6 12 12 S 13 20 29.97 1015 10 16 0.00 0.00
4:53 pm 16:53 Sunny 87 30.6 32 0 14 14 S 10 17 29.95 1014 10 16 0.00 0.00
5:53 pm 17:53 Sunny 85 29.4 37 2.8 18 18 SSE 7 11 29.93 1014 10 16 0.00 0.00
6:53 pm 18:53 Sunny 82 27.8 43 6.1 25 25 Calm 29.92 1013 10 16 0.00 0.00
7:53 pm 19:53 Sunny 77 25 48 8.9 36 36 Calm 29.91 1013 10 16 0.00 0.00
8:53 pm 20:53 Clear 74 23.3 48 8.9 40 40 N 3 6 29.91 1013 10 16 0.00 0.00
9:53 pm 21:53 Clear 71 21.7 48 8.9 44 44 N 3 6 29.94 1014 10 16 0.00 0.00
10:53 pm 22:53 Clear 68 20 49 9.4 51 51 ENE 3 6 29.94 1014 10 16 0.00 0.00
11:53 pm 23:53 Clear 66 18.9 49 9.4 54 54 Calm 29.93 1014 10 16 0.00 0.00

Powered by AerisWeather